Weather History for K9D7 - December, 2012

Change the Weather History Date:

Saturday, December 29, 2012

  Actual Average (KDVL) Record (KDVL)
Temperature  
Mean Temperature -2 °F -  
Max Temperature 8 °F 15 °F 46 °F (1999)
Min Temperature -13 °F -2 °F -27 °F (1996)
Degree Days  
Heating Degree Days 68    
Moisture  
Dew Point -8 °F    
Average Humidity 81    
Maximum Humidity 92    
Minimum Humidity 70    
Precipitation  
Precipitation 0.00 in - - ()
Sea Level Pressure  
Sea Level Pressure 29.98 in    
Wind  
Wind Speed 8 mph (WSW)    
Max Wind Speed 13 mph    
Max Gust Speed -    
Visibility 10 miles    
Events      
Averages and records for this station are not official NWS values.
T = Trace of Precipitation, MM = Missing Value Source: NWS Daily Summary

Daily Weather History Graph

Daily Weather History Graph

Search for Another Location

Airport or City:

Trip Planner

Search our weather history database for the weather conditions in past years. The results will help you decide how hot, cold, wet, or windy it might be!

Date:

Astronomy

Dec. 29, 2012 Rise Set
Actual Time 8:28 AM CST 4:50 PM CST
Civil Twilight 7:51 AM CST 5:26 PM CST
Nautical Twilight 7:11 AM CST 6:06 PM CST
Astronomical Twilight 6:33 AM CST 6:44 PM CST
Moon 6:33 PM CST (12/29) 8:55 AM CST (12/29)
Length of Visible Light 9h 34m
Length of Day
8h 21m
Full, 98% of the Moon is Illuminated
Dec 29
Full
Jan 4
Last Quarter
Jan 11
New
Jan 18
First Quarter
Jan 26
Full

Hourly Weather History & Observations

Time (CST) Temp. Windchill Dew Point Humidity Pressure Visibility Wind Dir Wind Speed Gust Speed Precip Events Conditions
12:15 AM -7.6 °F -25.7 °F -11.2 °F 84% 29.97 in 10.0 mi WNW 10.4 mph - N/A   Partly Cloudy
12:35 AM -7.6 °F -26.6 °F -11.2 °F 84% 29.96 in 10.0 mi WNW 11.5 mph - N/A   Clear
12:55 AM -7.6 °F -25.7 °F -13.0 °F 77% 29.97 in 10.0 mi WNW 10.4 mph - N/A   Clear
1:15 AM -7.6 °F -25.7 °F -13.0 °F 77% 29.97 in 10.0 mi West 10.4 mph - N/A   Clear
1:35 AM -9.4 °F -26.8 °F -13.0 °F 84% 29.96 in 10.0 mi WNW 9.2 mph - N/A   Clear
1:55 AM -9.4 °F -27.9 °F -14.8 °F 77% 29.96 in 10.0 mi West 10.4 mph - N/A   Clear
2:15 AM -11.2 °F -29.0 °F -16.6 °F 77% 29.96 in 10.0 mi West 9.2 mph - N/A   Clear
2:35 AM -11.2 °F -23.0 °F -16.6 °F 77% 29.96 in 10.0 mi West 4.6 mph - N/A   Partly Cloudy
2:55 AM -11.2 °F -23.0 °F -16.6 °F 77% 29.96 in 10.0 mi West 4.6 mph - N/A   Scattered Clouds
3:15 AM -11.2 °F -24.8 °F -16.6 °F 77% 29.96 in 10.0 mi West 5.8 mph - N/A   Overcast
3:35 AM -7.6 °F -25.7 °F -11.2 °F 84% 29.96 in 10.0 mi West 10.4 mph - N/A   Overcast
3:55 AM -5.8 °F -22.4 °F -11.2 °F 77% 29.96 in 10.0 mi West 9.2 mph - N/A   Mostly Cloudy
4:15 AM -7.6 °F -22.1 °F -13.0 °F 77% 29.97 in 10.0 mi West 6.9 mph - N/A   Mostly Cloudy
4:35 AM -7.6 °F -26.6 °F -13.0 °F 77% 29.96 in 10.0 mi West 11.5 mph - N/A   Scattered Clouds
4:55 AM -5.8 °F -25.2 °F -11.2 °F 77% 29.97 in 10.0 mi WNW 12.7 mph - N/A   Mostly Cloudy
5:15 AM -4.0 °F -23.0 °F -9.4 °F 78% 29.97 in 10.0 mi WNW 12.7 mph - N/A   Overcast
5:35 AM -4.0 °F -21.2 °F -9.4 °F 78% 29.97 in 10.0 mi West 10.4 mph - N/A   Overcast
5:55 AM -4.0 °F -23.0 °F -11.2 °F 71% 29.98 in 10.0 mi WNW 12.7 mph - N/A   Overcast
6:15 AM -5.8 °F -25.2 °F -11.2 °F 77% 29.98 in 10.0 mi WNW 12.7 mph - N/A   Overcast
6:35 AM -7.6 °F -27.5 °F -13.0 °F 77% 29.98 in 10.0 mi WNW 12.7 mph - N/A   Overcast
6:55 AM -9.4 °F -27.9 °F -13.0 °F 84% 29.99 in 10.0 mi WNW 10.4 mph - N/A   Overcast
7:15 AM -9.4 °F -26.8 °F -14.8 °F 77% 29.99 in 10.0 mi WNW 9.2 mph - N/A   Mostly Cloudy
7:35 AM -7.6 °F -25.7 °F -13.0 °F 77% 30.00 in 10.0 mi WNW 10.4 mph - N/A   Overcast
7:55 AM -9.4 °F -25.6 °F -13.0 °F 84% 30.00 in 10.0 mi WNW 8.1 mph - N/A   Overcast
8:15 AM -11.2 °F -27.8 °F -16.6 °F 77% 30.01 in 10.0 mi WNW 8.1 mph - N/A   Mostly Cloudy
8:35 AM -11.2 °F -27.8 °F -18.4 °F 70% 30.01 in 10.0 mi West 8.1 mph - N/A   Partly Cloudy
8:55 AM -13.0 °F -27.0 °F -18.4 °F 77% 30.01 in 10.0 mi WNW 5.8 mph - N/A   Clear
9:15 AM -13.0 °F -25.1 °F -18.4 °F 77% 30.01 in 10.0 mi West 4.6 mph - N/A   Clear
9:35 AM -11.2 °F -20.6 °F -16.6 °F 77% 30.02 in 10.0 mi West 3.5 mph - N/A   Clear
9:55 AM -9.4 °F -24.3 °F -16.6 °F 71% 30.02 in 10.0 mi West 6.9 mph - N/A   Clear
10:15 AM -7.6 °F - -13.0 °F 77% 30.02 in 10.0 mi Calm Calm - N/A   Clear
10:35 AM -4.0 °F -17.8 °F -9.4 °F 78% 30.03 in 10.0 mi WNW 6.9 mph - N/A   Mostly Cloudy
10:55 AM -4.0 °F -16.3 °F -9.4 °F 78% 30.04 in 10.0 mi West 5.8 mph - N/A   Partly Cloudy
11:15 AM -4.0 °F -14.6 °F -9.4 °F 78% 30.04 in 10.0 mi West 4.6 mph - N/A   Clear
11:35 AM -2.2 °F -14.2 °F -7.6 °F 78% 30.02 in 10.0 mi West 5.8 mph - N/A   Mostly Cloudy
11:55 AM -2.2 °F -10.4 °F -7.6 °F 78% 30.01 in 10.0 mi West 3.5 mph - N/A   Scattered Clouds
12:15 PM -0.4 °F -10.4 °F -7.6 °F 72% 30.02 in 10.0 mi West 4.6 mph - N/A   Clear
12:35 PM -0.4 °F -12.0 °F -5.8 °F 78% 30.01 in 10.0 mi West 5.8 mph - N/A   Scattered Clouds
12:55 PM -0.4 °F -10.4 °F -5.8 °F 78% 30.00 in 10.0 mi West 4.6 mph - N/A   Partly Cloudy
1:15 PM -0.4 °F - -4.0 °F 85% 30.00 in 10.0 mi Calm Calm - N/A   Clear
1:35 PM 1.4 °F - -4.0 °F 78% 29.99 in 10.0 mi Calm Calm - N/A   Clear
1:55 PM 1.4 °F -6.2 °F -4.0 °F 78% 29.98 in 10.0 mi South 3.5 mph - N/A   Clear
2:15 PM 1.4 °F -12.5 °F -2.2 °F 85% 29.98 in 10.0 mi WSW 8.1 mph - N/A   Clear
2:35 PM 1.4 °F -11.3 °F -2.2 °F 85% 29.98 in 10.0 mi SW 6.9 mph - N/A   Partly Cloudy
2:55 PM 3.2 °F -6.2 °F -0.4 °F 85% 29.98 in 10.0 mi SW 4.6 mph - N/A   Mostly Cloudy
3:15 PM 5.0 °F -4.1 °F -0.4 °F 78% 29.99 in 10.0 mi WSW 4.6 mph - N/A   Overcast
3:35 PM 5.0 °F -8.1 °F 1.4 °F 85% 29.98 in 10.0 mi WSW 8.1 mph - N/A   Overcast
3:55 PM 6.8 °F -5.9 °F 1.4 °F 79% 29.98 in 10.0 mi SW 8.1 mph - N/A   Overcast
4:15 PM 6.8 °F -3.5 °F 1.4 °F 79% 29.98 in 10.0 mi SSW 5.8 mph - N/A   Overcast
4:35 PM 6.8 °F -6.9 °F 3.2 °F 85% 29.98 in 10.0 mi SW 9.2 mph - N/A   Overcast
4:55 PM 6.8 °F -6.9 °F 3.2 °F 85% 29.98 in 10.0 mi SW 9.2 mph - N/A   Overcast
5:15 PM 8.6 °F -2.6 °F 3.2 °F 79% 29.98 in 10.0 mi SSW 6.9 mph - N/A   Overcast
5:35 PM 6.8 °F -6.9 °F 3.2 °F 85% 29.97 in 10.0 mi SSW 9.2 mph - N/A   Overcast
5:55 PM 6.8 °F -5.9 °F 1.4 °F 79% 29.97 in 10.0 mi SSW 8.1 mph - N/A   Mostly Cloudy
6:15 PM 5.0 °F -5.6 °F 1.4 °F 85% 29.97 in 10.0 mi SSW 5.8 mph - N/A   Partly Cloudy
6:35 PM 1.4 °F -9.9 °F -0.4 °F 92% 29.98 in 10.0 mi SSW 5.8 mph - N/A   Clear
6:55 PM -0.4 °F -10.4 °F -2.2 °F 92% 29.98 in 10.0 mi SSW 4.6 mph - N/A   Scattered Clouds
7:15 PM -0.4 °F -8.3 °F -2.2 °F 92% 29.97 in 10.0 mi South 3.5 mph - N/A   Mostly Cloudy
7:35 PM -0.4 °F -13.4 °F -4.0 °F 85% 29.97 in 10.0 mi SSW 6.9 mph - N/A   Partly Cloudy
7:55 PM -0.4 °F -14.7 °F -2.2 °F 92% 29.96 in 10.0 mi South 8.1 mph - N/A   Clear
8:15 PM -0.4 °F -15.7 °F -4.0 °F 85% 29.95 in 10.0 mi SSE 9.2 mph - N/A   Clear
8:35 PM -2.2 °F -18.9 °F -4.0 °F 92% 29.95 in 10.0 mi South 10.4 mph - N/A   Clear
8:55 PM -0.4 °F -13.4 °F -4.0 °F 85% 29.95 in 10.0 mi South 6.9 mph - N/A   Clear
9:15 PM -0.4 °F -12.0 °F -4.0 °F 85% 29.96 in 10.0 mi South 5.8 mph - N/A   Clear
9:35 PM -0.4 °F -16.7 °F -4.0 °F 85% 29.94 in 10.0 mi South 10.4 mph - N/A   Clear
9:55 PM -2.2 °F -14.2 °F -4.0 °F 92% 29.93 in 10.0 mi South 5.8 mph - N/A   Clear
10:15 PM -0.4 °F -12.0 °F -4.0 °F 85% 29.94 in 10.0 mi South 5.8 mph - N/A   Clear
10:35 PM -2.2 °F -12.5 °F -7.6 °F 78% 29.94 in 10.0 mi SSE 4.6 mph - N/A   Clear
10:55 PM -2.2 °F -14.2 °F -5.8 °F 85% 29.94 in 10.0 mi SSE 5.8 mph - N/A   Clear
11:15 PM -2.2 °F -14.2 °F -5.8 °F 85% 29.94 in 10.0 mi South 5.8 mph - N/A   Clear
11:35 PM -0.4 °F -10.4 °F -4.0 °F 85% 29.93 in 10.0 mi SSE 4.6 mph - N/A   Clear
11:55 PM -0.4 °F -12.0 °F -4.0 °F 85% 29.93 in 10.0 mi SSE 5.8 mph - N/A   Partly Cloudy